This is the latest recevied weather packets stored in our database for station/object KE5BM-13. If no packets are shown the sender has not sent any weather packets the latest 1 day(s).
| Time | Temp. | Humidity | Pressure | Rain* | Wind** | Luminosity | Snow |
|---|---|---|---|---|---|---|---|
| 1778013045 | 15.56° C | 79% | 1010.3 hPa | 0 mm | 4.02 m/s, 188° | - | - |
| 1778012746 | 15.56° C | 79% | 1010.4 hPa | 0 mm | 3.58 m/s, 187° | - | - |
| 1778012447 | 15.56° C | 79% | 1010.4 hPa | 0 mm | 3.58 m/s, 144° | - | - |
| 1778012142 | 15.56° C | 79% | 1010.4 hPa | 0 mm | 3.58 m/s, 184° | - | - |
| 1778011841 | 15.56° C | 79% | 1010.4 hPa | 0 mm | 3.13 m/s, 165° | - | - |
| 1778011544 | 15.56° C | 78% | 1010.5 hPa | 0 mm | 3.58 m/s, 202° | - | - |
| 1778011240 | 15.56° C | 78% | 1010.5 hPa | 0 mm | 3.58 m/s, 202° | - | - |
| 1778010940 | 16.11° C | 77% | 1010.6 hPa | 0 mm | 3.58 m/s, 144° | - | - |
| 1778010639 | 16.11° C | 77% | 1010.5 hPa | 0 mm | 3.13 m/s, 212° | - | - |
| 1778010338 | 16.11° C | 77% | 1010.6 hPa | 0 mm | 3.13 m/s, 143° | - | - |
| 1778010040 | 16.11° C | 77% | 1010.5 hPa | 0 mm | 2.68 m/s, 150° | - | - |
| 1778009737 | 16.67° C | 77% | 1010.6 hPa | 0 mm | 2.68 m/s, 164° | - | - |
| 1778009438 | 16.11° C | 78% | 1010.6 hPa | 0 mm | 3.13 m/s, 163° | - | - |
| 1778009136 | 16.11° C | 78% | 1010.7 hPa | 0 mm | 3.58 m/s, 161° | - | - |
| 1778008836 | 16.11° C | 77% | 1010.8 hPa | 0 mm | 3.13 m/s, 179° | - | - |
| 1778008534 | 16.11° C | 77% | 1010.7 hPa | 0 mm | 3.13 m/s, 215° | - | - |
| 1778008234 | 16.67° C | 76% | 1010.7 hPa | 0 mm | 2.68 m/s, 173° | - | - |
| 1778007936 | 16.67° C | 77% | 1010.7 hPa | 0 mm | 3.13 m/s, 169° | - | - |
| 1778007633 | 16.11° C | 76% | 1010.7 hPa | 0 mm | 3.13 m/s, 167° | - | - |
| 1778007333 | 16.67° C | 77% | 1010.8 hPa | 0 mm | 3.13 m/s, 149° | - | - |
| 1778007034 | 16.67° C | 76% | 1010.7 hPa | 0 mm | 2.68 m/s, 167° | - | - |
| 1778006732 | 16.67° C | 75% | 1010.7 hPa | 0 mm | 2.68 m/s, 190° | - | - |
| 1778006430 | 16.67° C | 76% | 1010.7 hPa | 0 mm | 2.68 m/s, 275° | - | - |
| 1778006130 | 16.67° C | 75% | 1010.7 hPa | 0 mm | 2.68 m/s, 194° | - | - |
| 1778005829 | 16.67° C | 76% | 1010.8 hPa | 0 mm | 3.13 m/s, 264° | - | - |
* Rain latest hour (hover to see other rain measurements)
** Current wind speed in m/s (hover to see current wind gust speed)